FW8351 Weather Reports


time (UTC)temp
C
wind
direction
speed
KPH
gust
KPH
rain 1hr
cm
rain 24hr
cm
rain mn
cm
humidity
%
barometer
mb
20260506144555 11 111 0.0 0.0 0.00 0.00 0.00 71 1008.6
20260506143014 10 54 0.0 6.4 0.00 0.00 0.00 75 1008.7
20260506141558 10 76 0.0 3.2 0.00 0.00 0.00 80 1008.8
20260506140056 10 87 0.0 1.6 0.00 0.00 0.00 76 1009.1
20260506134526 10 233 0.0 0.0 0.00 0.00 0.00 69 1009.1
20260506133056 10 49 0.0 0.0 0.00 0.00 0.00 63 1008.9
20260506131549 10 178 0.0 20.9 0.00 0.00 0.00 54 1009.2
20260506130041 11 303 0.0 0.0 0.00 0.00 0.00 60 1009.1
20260506124524 11 252 0.0 11.3 0.00 0.00 0.00 56 1009.1
20260506123057 12 274 1.6 17.7 0.00 0.00 0.00 55 1008.9
20260506121553 12 120 3.2 12.9 0.00 0.00 0.00 53 1008.9
20260506120030 12 146 0.0 0.0 0.00 0.00 0.00 52 1009.1
20260506114539 12 154 0.0 1.6 0.00 0.00 0.00 57 1009.3
20260506113052 12 210 0.0 3.2 0.00 0.00 0.00 60 1009.3
20260506111549 12 282 0.0 0.0 0.00 0.00 0.00 58 1009.4
20260506110019 13 291 0.0 4.8 0.00 0.00 0.00 58 1009.6
20260506104507 12 212 3.2 9.7 0.00 0.00 0.00 59 1009.7
20260506103049 12 178 0.0 0.0 0.00 0.00 0.00 59 1010.0
20260506101535 11 249 0.0 1.6 0.00 0.00 0.00 61 1010.2
20260506100033 11 232 0.0 4.8 0.00 0.00 0.00 65 1010.4
20260506094523 10 195 0.0 3.2 0.00 0.00 0.00 64 1010.4
20260506093103 10 174 0.0 1.6 0.00 0.00 0.00 66 1010.3
20260506091548 9 166 0.0 0.0 0.00 0.00 0.00 72 1010.3
20260506090040 8 187 0.0 0.0 0.00 0.00 0.00 80 1010.4
20260506084515 7 272 0.0 0.0 0.00 0.00 0.00 86 1010.4
20260506083056 7 230 0.0 0.0 0.00 0.00 0.00 87 1010.3
20260506081538 6 161 0.0 0.0 0.00 0.00 0.00 92 1010.3
20260506073102 4 188 0.0 0.0 0.00 0.00 0.00 94 1010.3
20260506071526 4 188 0.0 0.0 0.00 0.00 0.00 95 1010.2
20260506061532 3 39 0.0 0.0 0.00 0.00 0.00 95 1009.9
20260506050113 2 39 0.0 0.0 0.00 0.00 0.00 94 1009.3
20260506044546 3 39 0.0 0.0 0.00 0.00 0.00 94 1009.1
20260506043024 3 39 0.0 0.0 0.00 0.00 0.00 94 1009.1
20260506041515 2 39 0.0 0.0 0.00 0.00 0.00 94 1008.9
20260506040054 2 39 0.0 0.0 0.00 0.00 0.00 94 1008.9
20260506034512 2 39 0.0 0.0 0.00 0.00 0.00 93 1008.9
20260506033121 3 39 0.0 0.0 0.00 0.00 0.00 93 1008.7
20260506031525 3 39 0.0 0.0 0.00 0.00 0.00 94 1008.8
20260506030033 3 39 0.0 0.0 0.00 0.00 0.00 94 1008.7
20260506024515 3 39 0.0 0.0 0.00 0.00 0.00 94 1008.8
20260506023042 3 39 0.0 0.0 0.00 0.00 0.00 94 1008.8
20260506021550 3 39 0.0 0.0 0.00 0.00 0.00 94 1008.9
20260506020041 3 39 0.0 0.0 0.00 0.00 0.00 94 1009.0
20260506014528 2 39 0.0 0.0 0.00 0.00 0.00 93 1008.9
20260506013015 2 39 0.0 0.0 0.00 0.00 0.00 93 1009.0
20260506011553 2 39 0.0 0.0 0.00 0.00 0.00 93 1009.0
20260506010110 2 39 0.0 0.0 0.00 0.00 0.00 93 1009.1
20260506004540 2 39 0.0 0.0 0.00 0.00 0.00 92 1009.2
20260506003006 2 39 0.0 0.0 0.00 0.00 0.00 93 1009.4
20260506001548 3 39 0.0 0.0 0.00 0.00 0.00 93 1009.4
20260506000025 3 39 0.0 0.0 0.00 0.00 0.00 92 1009.4
20260505234509 3 39 0.0 0.0 0.00 0.00 0.00 92 1009.4
20260505233009 3 39 0.0 0.0 0.00 0.00 0.00 92 1009.6
20260505231604 3 39 0.0 0.0 0.00 0.00 0.00 92 1009.6
20260505230021 4 39 0.0 0.0 0.00 0.00 0.00 92 1009.7
20260505224540 4 39 0.0 0.0 0.00 0.00 0.00 92 1009.9
20260505223103 4 39 0.0 0.0 0.00 0.00 0.00 92 1010.2
20260505221507 4 39 0.0 0.0 0.00 0.00 0.00 92 1010.1
20260505220013 4 45 0.0 0.0 0.00 0.00 0.00 92 1010.2
20260505214607 4 45 0.0 0.0 0.00 0.00 0.00 92 1010.4
20260505213041 5 45 0.0 0.0 0.00 0.00 0.00 92 1010.3
20260505211524 5 45 0.0 0.0 0.00 0.00 0.00 92 1010.3
20260505210018 5 45 0.0 0.0 0.00 0.00 0.00 92 1010.3
20260505204502 4 45 0.0 0.0 0.00 0.00 0.00 91 1010.1
20260505203044 5 46 0.0 0.0 0.00 0.00 0.00 91 1009.8
20260505201506 5 46 0.0 0.0 0.00 0.00 0.00 91 1009.4
20260505200027 5 46 0.0 0.0 0.00 0.00 0.00 91 1009.3
20260505194502 5 46 0.0 0.0 0.00 0.00 0.00 91 1009.2
20260505193045 5 46 0.0 0.0 0.00 0.00 0.00 91 1009.3
20260505191509 5 39 0.0 0.0 0.00 0.00 0.00 90 1009.2
20260505190044 5 39 0.0 1.6 0.00 0.00 0.00 90 1009.0
20260505184538 5 350 0.0 1.6 0.00 0.00 0.00 90 1008.7
20260505183035 6 350 0.0 1.6 0.00 0.00 0.00 90 1008.6
20260505181534 6 320 0.0 0.0 0.00 0.00 0.00 91 1008.7
20260505180026 6 320 0.0 0.0 0.00 0.00 0.00 91 1008.6
20260505174545 6 320 0.0 0.0 0.00 0.03 0.00 91 1008.6
20260505173012 6 83 0.0 0.0 0.00 0.03 0.00 91 1009.1
20260505171557 6 118 0.0 1.6 0.00 0.03 0.00 91 1009.4
20260505170053 5 90 0.0 1.6 0.00 0.03 0.00 89 1009.3
20260505164545 6 133 1.6 9.7 0.00 0.03 0.00 87 1009.2
20260505163111 7 220 1.6 20.9 0.00 0.03 0.00 82 1008.9
20260505161549 8 229 1.6 22.5 0.00 0.03 0.00 76 1008.0
20260505153059 12 226 1.6 17.7 0.00 0.03 0.00 56 1007.5
20260505151516 12 143 0.0 14.5 0.00 0.03 0.00 63 1007.3